Haleyville, AL

2:28 PM CDT on July 24, 2017 (GMT -0500)
Haleyville

Weather History for K1M4 - July, 2014

Change the Weather History Date:

Monday, July 7, 2014

  Actual Average (KJFX) Record (KJFX)
Temperature  
Mean Temperature 72 °F -  
Max Temperature 84 °F 89 °F 103 °F (1977)
Min Temperature 61 °F 65 °F 51 °F (1972)
Cooling Degree Days 8    
Growing Degree Days 22 (Base 50)    
Moisture  
Dew Point 67 °F    
Average Humidity 83    
Maximum Humidity 100    
Minimum Humidity 60    
Precipitation  
Precipitation 0.00 in - - ()
Sea Level Pressure  
Sea Level Pressure 30.10 in    
Wind  
Wind Speed 2 mph (SW)    
Max Wind Speed 12 mph    
Max Gust Speed -    
Visibility 8 miles    
Events      
Averages and records for this station are not official NWS values.
T = Trace of Precipitation, MM = Missing Value Source: NWS Daily Summary

Daily Weather History Graph

Daily Weather History Graph

Search for Another Location

Airport or City:

Trip Planner

Search our weather history database for the weather conditions in past years. The results will help you decide how hot, cold, wet, or windy it might be!

Date:

Astronomy

Jul. 07, 2014 Rise Set
Actual Time 5:44 AM CDT 8:05 PM CDT
Civil Twilight 5:15 AM CDT 8:34 PM CDT
Nautical Twilight 4:40 AM CDT 9:10 PM CDT
Astronomical Twilight 4:01 AM CDT 9:48 PM CDT
Moon 3:14 PM CDT (7/7) 1:30 AM CDT (7/7)
Length of Visible Light 15h 18m
Length of Day
14h 20m
Waxing Gibbous, 72% of the Moon is Illuminated
Jul 7
Waxing Gibbous
Jul 12
Full
Jul 18
Last Quarter
Jul 26
New
Aug 3
First Quarter

Hourly Weather History & Observations

Time (CDT) Temp. Heat Index Dew Point Humidity Pressure Visibility Wind Dir Wind Speed Gust Speed Precip Events Conditions
12:56 AM 66.9 °F - 66.9 °F 100% 30.11 in 6.0 mi Calm Calm - N/A   Clear
1:56 AM 66.9 °F - 65.8 °F 96% 30.10 in 9.0 mi Calm Calm - N/A   Clear
2:56 AM 64.9 °F - 64.9 °F 100% 30.09 in 5.0 mi Calm Calm - N/A   Clear
3:56 AM 64.9 °F - 64.9 °F 100% 30.09 in 3.0 mi Calm Calm - N/A   Clear
4:20 AM 64.4 °F - 64.4 °F 100% 30.06 in 2.5 mi Calm Calm - N/A   Clear
4:27 AM 64.4 °F - 64.4 °F 100% 30.06 in 6.0 mi Calm Calm - N/A   Clear
4:56 AM 63.9 °F - 63.9 °F 100% 30.09 in 10.0 mi Calm Calm - N/A   Clear
5:56 AM 61.9 °F - 61.9 °F 100% 30.10 in 1.8 mi Calm Calm - N/A   Clear
6:05 AM 62.6 °F - 62.6 °F 100% 30.06 in 2.0 mi Calm Calm - N/A   Clear
6:17 AM 62.6 °F - 62.6 °F 100% 30.07 in 5.0 mi Calm Calm - N/A   Clear
6:56 AM 64.9 °F - 64.9 °F 100% 30.11 in 8.0 mi Calm Calm - N/A   Clear
7:56 AM 73.9 °F - 65.8 °F 76% 30.12 in 10.0 mi Calm Calm - N/A   Clear
8:56 AM 77.9 °F - 66.9 °F 69% 30.14 in 10.0 mi SW 6.9 mph - N/A   Clear
9:56 AM 81.0 °F 83.3 °F 66.9 °F 62% 30.15 in 10.0 mi SSW 9.2 mph - N/A   Scattered Clouds
10:56 AM 82.9 °F 85.8 °F 68.0 °F 60% 30.15 in 10.0 mi WSW 9.2 mph - N/A   Partly Cloudy
11:56 AM 83.8 °F 88.1 °F 70.0 °F 63% 30.14 in 10.0 mi SW 9.2 mph - N/A   Partly Cloudy
1:56 PM 84.9 °F 89.4 °F 70.0 °F 61% 30.11 in 10.0 mi West 6.9 mph - N/A   Partly Cloudy
2:56 PM 83.8 °F 88.1 °F 70.0 °F 63% 30.10 in 10.0 mi SSW 9.2 mph - N/A   Clear
3:56 PM 83.8 °F 88.6 °F 70.9 °F 65% 30.08 in 10.0 mi SW 9.2 mph - N/A   Clear
4:56 PM 84.9 °F 90.7 °F 72.0 °F 65% 30.07 in 10.0 mi SW 11.5 mph - N/A   Partly Cloudy
5:56 PM 84.9 °F 90.1 °F 70.9 °F 63% 30.07 in 10.0 mi SW 8.1 mph - N/A   Clear
6:56 PM 82.9 °F 87.5 °F 70.9 °F 67% 30.09 in 10.0 mi SW 3.5 mph - N/A   Clear
7:56 PM 77.9 °F - 72.0 °F 82% 30.09 in 10.0 mi Calm Calm - N/A   Clear
8:56 PM 74.8 °F - 70.9 °F 87% 30.08 in 10.0 mi South 4.6 mph - N/A   Clear
9:56 PM 74.8 °F - 70.0 °F 85% 30.08 in 10.0 mi South 3.5 mph - N/A   Clear
10:56 PM 73.9 °F - 70.0 °F 87% 30.08 in 10.0 mi South 4.6 mph - N/A   Clear
11:56 PM 72.0 °F - 70.0 °F 93% 30.08 in 10.0 mi Calm Calm - N/A   Clear